Weather in Kupriyanovka

Russia / Amur Oblast     49°57′31″N   129°19′56″E
temp.,
°C
wind,
m/s
gust,
m/s
humid.,
%
clouds,
%
prec.,
mm/h
press.,
hPa
HPBL,
m
1 march, mon
mon100:00−22nw47870 0.0 1032131
03:00−24nw34870 0.0 103433
06:00−26wnw33860 0.0 103421
09:00−23wnw248440 0.0 1035107
12:00−17wnw347492 0.0 1034527
15:00−16wnw347979 0.0 1031719
18:00−21nne238716 0.0 103120
21:00−24se11858 0.0 103220
2 march, tue
tue200:00−25s11830 0.0 103220
03:00−26e118342 0.0 103220
06:00−25ese3389100 0.0 103128
09:00−22se2495100 0.1 1031145
12:00−18s349392 0.0 1029299
15:00−15s238896 0.1 1027425
18:00−18ese3394100 0.0 102623
21:00−17se4793100 0.0 1026192
3 march, wed
wed300:00−17se4797100 0.1 1024171
03:00−17sse4695100 0.2 1023141
06:00−17se4895100 0.0 1021176
09:00−15se6109599 0.0 1019278
12:00−12sse6994100 0.3 1016415
15:00−9sse6993100 0.5 1013436
18:00−10sse5991100 0.1 1013215
21:00−11sse3596100 0.3 1014118
4 march, thu
thu400:00−12sse3396100 0.1 101352
03:00−12sse239799 0.3 101335
06:00−13sse239799 0.1 101334
09:00−10se239699 0.2 1013129
12:00−7ssw3493100 0.7 1011403
15:00−7wnw5692100 1.3 1010545
18:00−14nw61291100 0.1 1014395
21:00−17nnw7149196 0.1 1019453
5 march, fri
fri500:00−21nnw5138827 0.0 1023390
03:00−24nw5138714 0.0 1026336
06:00−27nw514810 0.0 1030336
09:00−25nw713790 0.0 1032715
12:00−23nw710790 0.0 1032861
15:00−20nw7117947 0.0 10331170
18:00−21nw41186100 0.0 1034454
21:00−24wnw478780 0.0 103590